This is the latest recevied weather packets stored in our database for station/object KE4AMH. If no packets are shown the sender has not sent any weather packets the latest 10 day(s).
| Time | Temp. | Humidity | Pressure | Rain* | Wind** | Luminosity | Snow |
|---|---|---|---|---|---|---|---|
| 1778032624 | 20.56° C | 60% | 1013.5 hPa | 0 mm | - | 0 W/m² | - |
| 1778032322 | 21.11° C | 60% | 1013.6 hPa | 0 mm | - | 0 W/m² | - |
| 1778032019 | 21.11° C | 60% | 1013.7 hPa | 0 mm | - | 0 W/m² | - |
| 1778031714 | 21.11° C | 59% | 1013.4 hPa | 0 mm | - | 0 W/m² | - |
| 1778031412 | 21.67° C | 59% | 1013.5 hPa | 0 mm | - | 0 W/m² | - |
| 1778031109 | 21.67° C | 59% | 1013.6 hPa | 0 mm | - | 0 W/m² | - |
| 1778030805 | 21.67° C | 59% | 1013.4 hPa | 0 mm | - | 0 W/m² | - |
| 1778030502 | 21.67° C | 61% | 1013.5 hPa | 0 mm | - | 0 W/m² | - |
| 1778030200 | 21.11° C | 62% | 1013.7 hPa | 0 mm | - | 0 W/m² | - |
| 1778029896 | 21.11° C | 63% | 1013.6 hPa | 0 mm | - | 0 W/m² | - |
| 1778029595 | 21.67° C | 62% | 1013.9 hPa | 0 mm | - | 0 W/m² | - |
| 1778029291 | 21.67° C | 62% | 1013.7 hPa | 0 mm | - | 0 W/m² | - |
| 1778028988 | 21.67° C | 60% | 1013.7 hPa | 0 mm | - | 0 W/m² | - |
| 1778028685 | 22.22° C | 58% | 1013.7 hPa | 0 mm | - | 0 W/m² | - |
| 1778028381 | 22.22° C | 58% | 1013.7 hPa | 0 mm | - | 0 W/m² | - |
| 1778028079 | 22.22° C | 59% | 1013.5 hPa | 0 mm | - | 0 W/m² | - |
| 1778027775 | 22.22° C | 58% | 1013.5 hPa | 0 mm | - | 0 W/m² | - |
| 1778027471 | 22.78° C | 59% | 1013.5 hPa | 0 mm | - | 0 W/m² | - |
| 1778027167 | 22.78° C | 57% | 1013.6 hPa | 0 mm | - | 0 W/m² | - |
| 1778026863 | 23.33° C | 54% | 1013.6 hPa | 0 mm | - | 0 W/m² | - |
| 1778026559 | 23.33° C | 54% | 1013.5 hPa | 0 mm | - | 0 W/m² | - |
| 1778026257 | 23.33° C | 53% | 1013.5 hPa | 0 mm | - | 0 W/m² | - |
| 1778025954 | 23.33° C | 53% | 1013.6 hPa | 0 mm | - | 1 W/m² | - |
| 1778025651 | 23.33° C | 53% | 1013.5 hPa | 0 mm | - | 1 W/m² | - |
| 1778025349 | 23.33° C | 53% | 1013.6 hPa | 0 mm | - | 4 W/m² | - |
* Rain latest hour (hover to see other rain measurements)
** Current wind speed in m/s (hover to see current wind gust speed)